Regional Weather Roundup
Issued by NWS

Home | Current Version | Previous Version | Graphics & Text | Print | Product List | Glossary On
Versions: 1 2 3 4 5 6 7 8 9 10 11 12 13 14 15 16 17 18 19 20 21 22 23 24 25 26 27 28 29 30 31 32 33 34 35 36 37 38 39 40 41 42 43 44 45 46 47 48 49 50
000
ASUS43 KMKX 251713
RWRWI

WISCONSIN REGIONAL WEATHER ROUNDUP
NATIONAL WEATHER SERVICE MILWAUKEE/SULLIVAN WI
1200 PM CDT MON MAY 25 2015

NOTE: "FAIR" INDICATES FEW OR NO CLOUDS BELOW 12,000 FEET WITH NO
SIGNIFICANT WEATHER AND/OR OBSTRUCTIONS TO VISIBILITY.

WIZ001-002-006>008-014>016-023>028-251800-
NORTHWEST WISCONSIN

CITY           SKY/WX    TMP DP  RH WIND       PRES   REMARKS
SUPERIOR ARPT  CLOUDY    50  49  98 E10G16    29.70F
ASHLAND        FOG       49  49 100 N9        29.69R VSB 1/2
HAYWARD        LGT RAIN  61  57  87 SW8       29.68S
SIREN          CLOUDY    59  58  96 S3        29.68S FOG
CUMBERLAND     CLOUDY    59  59 100 SW7       29.68F
RICE LAKE      CLOUDY    62  60  91 S5        29.69F
CHETEK         CLOUDY    62  61  96 S6        29.69S
LADYSMITH      CLOUDY    61  60  97 SW7       29.71S
EAU CLAIRE     CLOUDY    66  60  81 SW12      29.69S
MENOMONIE      CLOUDY    66  62  87 S10       29.70R
NEW RICHMOND   CLOUDY    66  62  88 SW10G17   29.68S
OSCEOLA        CLOUDY    64  64  98 SW13      29.71R
$$

WIZ003>005-009-010-017-018-251800-
NORTH CENTRAL WISCONSIN

CITY           SKY/WX    TMP DP  RH WIND       PRES   REMARKS
MANITOWISH WTR LGT RAIN  60  60 100 S6        29.68S
ARBOR VITAE    HVY RAIN  62  60  95 SE6       29.69S
WOODRUFF       HVY RAIN  62  60  95 SE6       29.69S
RHINELANDER    LGT RAIN  62  60  93 S8        29.71S
EAGLE RIVER    CLOUDY    59  59 100 SE6       29.70S
LAND O LAKES   LGT RAIN  59  58  97 SE5       29.71S
PHILLIPS       DRIZZLE   62  61  99 SW8       29.68S
TOMAHAWK       DRIZZLE   62  61  96 CALM      29.70S
MEDFORD        CLOUDY    63  60  92 SW9G17    29.71S
MERRILL        RAIN      64  64 100 SW7       29.71S
$$

WIZ029-030-035-036-043>047-251800-
CENTRAL WISCONSIN

CITY           SKY/WX    TMP DP  RH WIND       PRES   REMARKS
WAUSAU         LGT RAIN  64  62  93 SW10G21   29.70S
MOSINEE        NOT AVBL
MARSHFIELD     CLOUDY    67  62  84 SW13      29.73S
STEVENS POINT  CLOUDY    64  62  93 SW14G20   29.73S
WAUPACA        CLOUDY    70  68  96 SW13      29.73S
WAUTOMA        NOT AVBL
WISC RAPIDS    CLOUDY    67  61  81 W10G23    29.75R
CAMP DOUGLAS   NOT AVBL
$$

WIZ011>013-019>022-031-037>040-048>050-251800-
NORTHEAST WISCONSIN

CITY           SKY/WX    TMP DP  RH WIND       PRES   REMARKS
ANTIGO         LGT RAIN  58  58 100 CALM      29.72S
SHAWANO        LGT RAIN  64  63  95 SW6       29.71R
OCONTO         CLOUDY    65  65 100 S6        29.69S
STURGEON BAY   CLOUDY    59  55  88 S16G24    29.73F
GREEN BAY      LGT RAIN  69  65  86 SW15G24   29.72R
MANITOWOC      NOT AVBL
APPLETON       PTSUNNY   68  64  88 SW17G26   29.75R
CLINTONVILLE   DRIZZLE   64  63  94 W7        29.71R
OSHKOSH        PTSUNNY   71  62  73 SW12G20   29.75R
$$

WIZ032>034-041-042-053>061-251800-
SOUTHWEST WISCONSIN

CITY           SKY/WX    TMP DP  RH WIND       PRES   REMARKS
LA CROSSE      CLOUDY    73  61  65 SW14      29.73S
SPARTA         PTSUNNY   72  61  68 SW12G17   29.74F
VIROQUA        CLOUDY    67  66  97 SW14G23   29.78S
BOSCOBEL       CLOUDY    71  65  81 SW10      29.79S
PRAIRIE DU CHI CLOUDY    69  63  81 SW13      29.79S
PLATTEVILLE    CLOUDY    68  65  88 SW21      29.83S
$$

WIZ056-057-062-063-064-067-068-251800-
SOUTH CENTRAL WISCONSIN

CITY           SKY/WX    TMP DP  RH WIND       PRES   REMARKS
REEDSBURG      CLOUDY    66  63  90 SW9       29.77S
BARABOO/DELLS  LGT RAIN  65  62  88 SW10      29.78S
LONE ROCK      CLOUDY    70  63  78 W13G24    29.80R
MINERAL POINT  CLOUDY    70  64  83 SW15G24   29.82R
MADISON        PTSUNNY   70  62  76 W8        29.80R
MIDDLETON      PTSUNNY   70  64  81 W12G18    29.80S
WATERTOWN      CLOUDY    71  65  83 SW14      29.80R
MONROE         CLOUDY    68  63  83 SW13      29.83S
JANESVILLE     LGT RAIN  70  66  88 SW14G20   29.84R
$$

WIZ051-052-058>065-066-070>072-251800-
SOUTHEAST WISCONSIN

CITY           SKY/WX    TMP DP  RH WIND       PRES   REMARKS
MILWAUKEE      PTSUNNY   73  60  63 SW23G32   29.82R
WAUKESHA       PTSUNNY   70  63  78 SW16G23   29.83R
MILWAUKEE/TIMM NOT AVBL
RACINE         LGT RAIN  71  62  73 SW18G28   29.85R
BURLINGTON     CLOUDY    69  61  76 SW16      29.84R
KENOSHA        PTSUNNY   74  66  76 W16G25    29.84R
FOND DU LAC    PTSUNNY   71  62  73 SW16G24   29.76S
SHEBOYGAN      CLOUDY    73  62  68 SW22G29   29.77R
WEST BEND      CLOUDY    73  61  64 SW17      29.78S
JUNEAU         CLOUDY    71  63  76 SW23G30   29.81R
$$

LSZ147-162-251800-
LAKE SUPERIOR

STATION/POSITION TIME  TEMP    WIND        PRES    WAVE
                       AIR SEA DIR/SP/G            HT/PER
                 (UTC) (F)     (DEG/KT/KT) (MB)    (FT/S)
W MID LAKE BUOY  1550   42 36   40/ 19/ 21 1064.0F   3/ 4
DEVILS ISLAND    1600   45      60/ 23/ 25 1058.0F
PORT WING        1500   48      40/ 13/ 15 1061.0F
SAXON HARBOR     1500   49      60/  4/  6 1051.0
$$

LMZ867-665-643>646-251800-
LAKE MICHIGAN

STATION/POSITION TIME  TEMP    WIND        PRES    WAVE
                       AIR SEA DIR/SP/G            HT/PER
                 (UTC) (F)     (DEG/KT/KT) (MB)    (FT/S)
CHAMBERS ISLAND  1500   58     130/  4/  8 1071.0F
N MID LAKE BUOY  1550   44 36  180/ 12/ 14 1082.0F   1
NORTHPORT PIER   1500   48     140/ 12/ 13 1078.0F
SISTER BAY       1617   58     180/ 15/ 22   N/A
KEWAUNEE LAKESHO 1600   48     180/ 13/ 15 1065.0F
SHEBOYGAN LAKESH 1600   50     170/ 21/ 23 1081.0F
PORT WASHINGTON  1640          250/ 12/ 22   N/A
ATWATER BUOY     1600   67 46  210/ 16/ 19   N/A
MILWAUKEE LAKESH 1600   69     220/ 14/ 18   N/A
S MID LAKE BUOY  1550   49 38  190/ 17/ 19   N/A     2/ 4
KENOSHA   LAKESH 1600   71     230/ 17/ 22   N/A
$$

TC  - TEMPERATURE IN CELSIUS
VSB - VISIBILITY IN STATUTE MILES
WCI - WIND CHILL INDEX
HX  - HEAT INDEX




USA.gov is the U.S. government's official web portal to all federal, state and local government web resources and services.